Rolla, MO

7:16 AM CST on November 19, 2017 (GMT -0600)
Rolla National

Weather History for KVIH - May, 2014

Change the Weather History Date:

Wednesday, May 21, 2014

  Actual Average Record
Temperature  
Mean Temperature 74 °F 65 °F  
Max Temperature 83 °F 76 °F 90 °F (1962)
Min Temperature 65 °F 55 °F 40 °F (2002)
Degree Days  
Heating Degree Days 0 3  
Month to date heating degree days 124 95  
Since 1 July heating degree days 5476 4813  
Cooling Degree Days 9 3  
Month to date cooling degree days 74 43  
Year to date cooling degree days 86 69  
Growing Degree Days 23 (Base 50)    
Moisture  
Dew Point 66 °F    
Average Humidity 76    
Maximum Humidity 90    
Minimum Humidity 62    
Precipitation  
Precipitation T in 0.16 in 1.92 in (1970)
Month to date precipitation 1.44 3.42  
Year to date precipitation 7.26 15.19  
Sea Level Pressure  
Sea Level Pressure 29.95 in    
Wind  
Wind Speed 9 mph (SW)    
Max Wind Speed 17 mph    
Max Gust Speed 22 mph    
Visibility 10 miles    
Events Rain , Thunderstorm    
T = Trace of Precipitation, MM = Missing Value Source: NWS Daily Summary

Daily Weather History Graph

Daily Weather History Graph

Search for Another Location

Airport or City:

Trip Planner

Search our weather history database for the weather conditions in past years. The results will help you decide how hot, cold, wet, or windy it might be!

Date:

Astronomy

May. 21, 2014 Rise Set
Actual Time 5:51 AM CDT 8:16 PM CDT
Civil Twilight 5:21 AM CDT 8:46 PM CDT
Nautical Twilight 4:44 AM CDT 9:23 PM CDT
Astronomical Twilight 4:03 AM CDT 10:04 PM CDT
Moon 1:27 AM CDT (5/21) 1:04 PM CDT (5/21)
Length of Visible Light 15h 24m
Length of Day
14h 24m
Waning Gibbous, 48% of the Moon is Illuminated
May 21
Waning Gibbous
May 28
New
Jun 5
First Quarter
Jun 12
Full
Jun 19
Last Quarter

Hourly Weather History & Observations

Time (CDT) Temp. Heat Index Dew Point Humidity Pressure Visibility Wind Dir Wind Speed Gust Speed Precip Events Conditions
12:53 AM 68.0 °F - 61.0 °F 78% 29.89 in 10.0 mi SSW 9.2 mph - N/A   Clear
1:53 AM 66.9 °F - 61.0 °F 81% 29.89 in 10.0 mi SSW 10.4 mph - N/A   Clear
2:53 AM 66.0 °F - 61.0 °F 84% 29.89 in 10.0 mi SSW 10.4 mph - N/A   Clear
3:53 AM 66.2 °F - 60.8 °F 83% 29.93 in 10.0 mi SSW 9.2 mph - N/A   Clear
4:53 AM 64.9 °F - 61.0 °F 87% 29.90 in 10.0 mi SSW 10.4 mph - N/A   Clear
5:53 AM 66.0 °F - 62.1 °F 87% 29.92 in 10.0 mi SSW 9.2 mph - N/A   Overcast
6:53 AM 66.2 °F - 62.6 °F 88% 29.97 in 10.0 mi South 11.5 mph - N/A   Partly Cloudy
7:53 AM 69.1 °F - 63.0 °F 81% 29.95 in 10.0 mi SSW 11.5 mph - N/A   Clear
8:53 AM 70.0 °F - 64.0 °F 81% 29.96 in 10.0 mi SSW 12.7 mph - N/A   Clear
10:53 AM 77.0 °F - 66.0 °F 69% 29.94 in 10.0 mi SW 17.3 mph - N/A   Clear
11:53 AM 80.1 °F 82.3 °F 66.9 °F 64% 29.95 in 10.0 mi SW 9.2 mph - N/A   Clear
12:53 PM 80.6 °F 82.7 °F 66.2 °F 61% 29.97 in 10.0 mi SSW 9.2 mph - N/A   Partly Cloudy
1:53 PM 82.9 °F 85.8 °F 68.0 °F 60% 29.95 in 10.0 mi SW 16.1 mph 20.7 mph N/A   Partly Cloudy
2:53 PM 78.1 °F - 66.9 °F 68% 29.95 in 10.0 mi SW 11.5 mph - 0.00 in Rain Light Rain
3:11 PM 75.9 °F - 68.0 °F 76% 29.99 in 10.0 mi WSW 8.1 mph - 0.00 in Thunderstorm Thunderstorm
3:46 PM 82.0 °F 85.5 °F 69.1 °F 65% 29.97 in 10.0 mi SSW 8.1 mph - 0.00 in Thunderstorm Partly Cloudy
3:53 PM 82.0 °F 85.5 °F 69.1 °F 65% 29.94 in 10.0 mi SW 8.1 mph - 0.00 in   Clear
4:53 PM 82.0 °F 84.9 °F 68.0 °F 62% 29.94 in 10.0 mi WSW 11.5 mph 18.4 mph N/A   Partly Cloudy
5:53 PM 81.0 °F 83.8 °F 68.0 °F 65% 29.94 in 10.0 mi WNW 6.9 mph - N/A   Mostly Cloudy
6:53 PM 79.0 °F - 70.0 °F 74% 29.94 in 10.0 mi Calm Calm - N/A   Mostly Cloudy
7:53 PM 77.0 °F - 69.1 °F 76% 29.95 in 10.0 mi WSW 5.8 mph - N/A   Mostly Cloudy
8:53 PM 75.0 °F - 68.0 °F 79% 29.96 in 10.0 mi WNW 5.8 mph - N/A   Mostly Cloudy
9:53 PM 72.0 °F - 68.0 °F 87% 29.98 in 10.0 mi SW 5.8 mph - N/A   Mostly Cloudy
10:53 PM 71.1 °F - 66.9 °F 87% 29.98 in 10.0 mi SSW 6.9 mph - N/A   Mostly Cloudy
11:53 PM 70.0 °F - 66.0 °F 87% 29.99 in 10.0 mi West 5.8 mph - N/A   Clear